Location: Ciserano
(45.5833°N, 9.6000°E)
Time: 22:06:44
(UTC+00:00)

FALCON 9 DEB - Pass Details

Date: 21 June 2021
Orbit: 364 x 377 km, 53.0° (Epoch: 26 July)

Event Time Altitude Azimuth Distance (km) Brightness Sun altitude
Rises 21:15:14 0° 259° (W) 2,254 7.0 -15.1°
Reaches altitude 10° 21:17:22 10° 268° (W) 1,405 6.1 -15.3°
Maximum altitude 21:20:19 37° 338° (NNW) 622 4.6 -15.5°
Drops below altitude 10° 21:23:17 10° 48° (NE) 1,413 5.9 -15.8°
Sets 21:25:27 0° 57° (ENE) 2,269 6.8 -15.9°
